Regional Weather Roundup
Issued by NWS

Home | Current Version | Previous Version | Text Only | Print | Product List | Glossary On
Versions: 1 2 3 4 5 6 7 8 9 10 11 12 13 14 15 16 17 18 19 20 21 22 23 24 25 26 27 28 29 30 31 32 33 34 35 36 37 38 39 40 41 42 43 44 45 46 47 48 49 50
000
ASUS43 KOAX 020810
RWRNE

WEATHER ROUNDUP FOR NEBRASKA
NATIONAL WEATHER SERVICE OMAHA NE
300 AM CDT WED SEP 02 2015

NOTES: SATELLITE DATA IS BEING USED TO AUGMENT CLOUD COVER ABOVE
       12000 FEET.
       "FAIR" INDICATES FEW OR NO CLOUDS BELOW 12,000 FEET WITH NO
       SIGNIFICANT WEATHER AND/OR OBSTRUCTIONS TO VISIBILITY.

  * THESE STATIONS DO NOT REPORT WEATHER SUCH AS RAIN...SNOW OR FOG.

NEZ001>004-019>022-054>056-020900-
NEBRASKA PANHANDLE

CITY           SKY/WX    TMP DP  RH WIND       PRES   REMARKS
SCOTTSBLUFF    PTCLDY    58  52  80 MISG      29.97R
ALLIANCE       CLEAR     60  49  66 S9        29.93S
CHADRON        CLEAR     55  44  66 W3        29.87F
KIMBALL        PTCLDY    58  44  61 W7        30.02F
SIDNEY         CLEAR     64  43  46 SW10      30.00S
$$

NEZ057>060-069>072-079>082-020900-
SOUTHWEST NEBRASKA

CITY           SKY/WX    TMP DP  RH WIND       PRES   REMARKS
NORTH PLATTE   CLEAR     64  59  83 CALM      29.91S
IMPERIAL       CLEAR     65  56  72 SW7       29.94S
LEXINGTON      CLEAR     65  62  89 E3        29.90S
MCCOOK         CLEAR     67  57  70 CALM      29.90F
OGALLALA       CLEAR     66  57  74 SW5       29.93F
$$

NEZ005>010-023>029-035>040-094-020900-
NORTH CENTRAL NEBRASKA

CITY           SKY/WX    TMP DP  RH WIND       PRES   REMARKS
VALENTINE      CLEAR     66  60  81 W6        29.85S
BROKEN BOW     CLEAR     64  61  90 CALM      29.89F
O`NEILL        CLEAR     69  66  91 S7        29.85F
ORD            CLEAR     63  61  93 CALM      29.86S
THEDFORD       CLEAR     69  62  80 S8        29.90F
$$

NEZ041-046>049-061>064-073>077-083>087-020900-
SOUTH CENTRAL NEBRASKA

CITY           SKY/WX    TMP DP  RH WIND       PRES   REMARKS
GRAND ISLAND   CLEAR     76  63  64 S13       29.89S
AURORA         CLEAR     73  67  82 S8        29.89S
HASTINGS       CLEAR     73  64  73 S6        29.89F
HEBRON         CLEAR     74  65  73 S10       29.90S
HOLDREGE       CLEAR     69  60  72 S5        29.90S
KEARNEY *      CLEAR     72  59  64 S7        29.89F
YORK           CLEAR     72  66  83 S8        29.89F
$$

NEZ011>018-030>034-042>045-020900-
NORTHEAST NEBRASKA

CITY           SKY/WX    TMP DP  RH WIND       PRES   REMARKS
NORFOLK        CLEAR     68  64  87 E5        29.86F
ALBION         CLEAR     71  64  77 CALM      29.87F
BLAIR          PTCLDY    73  66  78 S12       29.89F
COLUMBUS *     CLEAR     72  63  73 S7        29.87F
FREMONT        CLEAR     74  66  74 SE9       29.87F
TEKAMAH        CLEAR     73  68  84 S8        29.87F
WAYNE          CLEAR     69  66  90 S6        29.87S
$$

NEZ050>053-065>068-078-088>093-020900-
SOUTHEAST NEBRASKA

CITY           SKY/WX    TMP DP  RH WIND       PRES   REMARKS
LINCOLN        CLEAR     75  68  78 S10       29.89F
OMAHA EPPLEY   PTCLDY    76  68  76 S16       29.89F
BEATRICE       CLEAR     75  68  77 S12       29.90F
FALLS CITY     CLOUDY    74  69  85 S15       29.93F
NEBRASKA CITY  PTCLDY    74  65  73 S14       29.92F
PLATTSMOUTH    CLOUDY    74  66  75 S10       29.90F
$$

NEZ044-045-051>053-067-020900-
OMAHA AREA

CITY           SKY/WX    TMP DP  RH WIND       PRES   REMARKS
OMAHA EPPLEY   PTCLDY    76  68  76 S16       29.89F
BLAIR          PTCLDY    73  66  78 S12       29.89F
FREMONT        CLEAR     74  66  74 SE9       29.87F
MILLARD        CLEAR     74  68  82 SE6       29.89S
OFFUTT AFB     PTCLDY    74  68  83 SE12      29.89F
PLATTSMOUTH    CLOUDY    74  66  75 S10       29.90F
WAHOO          FAIR      69  66  92 S8        29.88S
$$




USA.gov is the U.S. government's official web portal to all federal, state and local government web resources and services.